RYR8NK ELLX-LFML

Flight info

Callsign RYR8NK
Flight time 1h 8m
Altitude 23000
Route GTQ A242 POGOL/N0420F310 DCT LASAT DCT MOROK DCT GILIR DCT GEVEA DCT INCUS DCT BALSI
Aircraft B738/M-SDFGIJ1LRWY/SB1

Departure

Time 2026-04-28 11:55
Airport Luxembourg-Findel International Airport (ELLX)

Arrival

Time 2026-04-28 13:04
Airport Marseille Provence Airport (LFML)
Time Latitude Longitude Altitude Speed Heading
2026-04-28 11:30 49.63181 6.21362 1236 ft 0 kts 60°
2026-04-28 11:43 49.63179 6.21356 1235 ft 2 kts 60°
2026-04-28 11:44 49.63171 6.21335 1235 ft 2 kts 60°
2026-04-28 11:44 49.63164 6.21315 1236 ft 2 kts 60°
2026-04-28 11:44 49.63158 6.21303 1236 ft 0 kts 84°
2026-04-28 11:44 49.63159 6.21295 1236 ft 0 kts 129°
2026-04-28 11:45 49.63163 6.21290 1236 ft 1 kts 159°
2026-04-28 11:45 49.63167 6.21287 1237 ft 0 kts 150°
2026-04-28 11:47 49.63166 6.21288 1237 ft 1 kts 150°
2026-04-28 11:47 49.63126 6.21323 1234 ft 10 kts 150°
2026-04-28 11:48 49.63058 6.21385 1229 ft 8 kts 149°
2026-04-28 11:48 49.63025 6.21411 1226 ft 0 kts 160°
2026-04-28 11:48 49.63019 6.21411 1226 ft 1 kts 190°
2026-04-28 11:49 49.63004 6.21395 1226 ft 6 kts 226°
2026-04-28 11:49 49.62979 6.21329 1228 ft 7 kts 243°
2026-04-28 11:49 49.62956 6.21260 1229 ft 7 kts 243°
2026-04-28 11:49 49.62931 6.21186 1231 ft 7 kts 244°
2026-04-28 11:50 49.62905 6.21100 1232 ft 9 kts 245°
2026-04-28 11:50 49.62872 6.20993 1233 ft 12 kts 245°
2026-04-28 11:50 49.62832 6.20857 1234 ft 14 kts 245°
2026-04-28 11:50 49.62766 6.20701 1230 ft 20 kts 226°
2026-04-28 11:51 49.62648 6.20559 1225 ft 22 kts 223°
2026-04-28 11:51 49.62537 6.20377 1220 ft 23 kts 230°
2026-04-28 11:51 49.62463 6.20197 1215 ft 11 kts 242°
2026-04-28 11:51 49.62450 6.20158 1214 ft 0 kts 242°
2026-04-28 11:52 49.62448 6.20154 1214 ft 4 kts 242°
2026-04-28 11:52 49.62398 6.20012 1206 ft 21 kts 241°
2026-04-28 11:53 49.62318 6.19795 1197 ft 25 kts 239°
2026-04-28 11:53 49.62227 6.19555 1184 ft 27 kts 239°
2026-04-28 11:53 49.62123 6.19274 1171 ft 31 kts 241°
2026-04-28 11:53 49.62022 6.19002 1161 ft 23 kts 240°
2026-04-28 11:54 49.61923 6.18782 1151 ft 24 kts 223°
2026-04-28 11:54 49.61795 6.18736 1147 ft 17 kts 138°
2026-04-28 11:54 49.61797 6.18875 1151 ft 11 kts 61°
2026-04-28 11:54 49.61880 6.19096 1160 ft 52 kts 59°
2026-04-28 11:55 49.62170 6.19871 1198 ft 112 kts 60°
2026-04-28 11:55 49.62646 6.21154 1275 ft 156 kts 60°
2026-04-28 11:55 49.63201 6.22590 1888 ft 159 kts 58°
2026-04-28 11:55 49.63776 6.24016 2575 ft 159 kts 60°
2026-04-28 11:56 49.64295 6.25503 3115 ft 160 kts 72°
2026-04-28 11:56 49.64254 6.27256 3376 ft 178 kts 113°
2026-04-28 11:56 49.63324 6.28657 3689 ft 198 kts 141°
2026-04-28 11:56 49.62161 6.29959 3935 ft 216 kts 134°
2026-04-28 11:57 49.61029 6.31621 4325 ft 229 kts 130°
2026-04-28 11:57 49.59896 6.33431 4721 ft 243 kts 130°
2026-04-28 11:57 49.58680 6.35358 5164 ft 254 kts 131°
2026-04-28 11:57 49.57423 6.37306 5756 ft 259 kts 133°
2026-04-28 11:58 49.56128 6.39234 6411 ft 263 kts 137°
2026-04-28 11:58 49.54604 6.40805 7043 ft 268 kts 151°
2026-04-28 11:58 49.52889 6.41986 7745 ft 271 kts 155°
2026-04-28 11:58 49.51128 6.43094 8433 ft 274 kts 156°
2026-04-28 11:59 49.49387 6.44224 9119 ft 277 kts 155°
2026-04-28 11:59 49.47620 6.45414 9833 ft 279 kts 155°
2026-04-28 11:59 49.45812 6.46659 10467 ft 286 kts 155°
2026-04-28 11:59 49.43956 6.47945 10872 ft 301 kts 155°
2026-04-28 12:00 49.41996 6.49305 11283 ft 315 kts 155°
2026-04-28 12:00 49.39968 6.50710 11687 ft 329 kts 155°
2026-04-28 12:00 49.37854 6.52171 12340 ft 335 kts 155°
2026-04-28 12:00 49.35722 6.53643 12991 ft 341 kts 155°
2026-04-28 12:01 49.33549 6.55142 13710 ft 345 kts 156°
2026-04-28 12:01 49.31337 6.56666 14436 ft 349 kts 156°
2026-04-28 12:01 49.29116 6.58194 15162 ft 353 kts 156°
2026-04-28 12:01 49.26864 6.59743 15888 ft 357 kts 156°
2026-04-28 12:02 49.24580 6.61291 16582 ft 361 kts 158°
2026-04-28 12:02 49.22217 6.62660 17295 ft 364 kts 162°
2026-04-28 12:02 49.19785 6.63763 17956 ft 368 kts 166°
2026-04-28 12:02 49.17303 6.64722 18611 ft 371 kts 168°
2026-04-28 12:03 49.14786 6.65632 19284 ft 374 kts 169°
2026-04-28 12:03 49.12222 6.66556 19910 ft 379 kts 169°
2026-04-28 12:03 49.09625 6.67504 20563 ft 382 kts 169°
2026-04-28 12:03 49.07027 6.68465 21154 ft 386 kts 169°
2026-04-28 12:04 49.04403 6.69444 21752 ft 389 kts 169°
2026-04-28 12:04 49.01768 6.70404 22343 ft 392 kts 171°
2026-04-28 12:04 48.99073 6.71185 22912 ft 393 kts 175°
2026-04-28 12:04 48.96352 6.71558 23458 ft 394 kts 181°
2026-04-28 12:05 48.93630 6.71620 24005 ft 395 kts 184°
2026-04-28 12:05 48.90854 6.71529 24619 ft 396 kts 186°
2026-04-28 12:05 48.88092 6.71382 25144 ft 398 kts 186°
2026-04-28 12:05 48.85323 6.71226 25681 ft 400 kts 187°
2026-04-28 12:06 48.82509 6.71071 26179 ft 403 kts 187°
2026-04-28 12:06 48.79726 6.70928 26743 ft 403 kts 187°
2026-04-28 12:06 48.76899 6.70796 27427 ft 400 kts 187°
2026-04-28 12:06 48.74176 6.70682 28239 ft 393 kts 187°
2026-04-28 12:07 48.71439 6.70573 28960 ft 388 kts 188°
2026-04-28 12:07 48.68752 6.70467 29593 ft 384 kts 188°
2026-04-28 12:07 48.66070 6.70358 30006 ft 385 kts 188°
2026-04-28 12:07 48.63381 6.70248 30519 ft 384 kts 189°
2026-04-28 12:08 48.60736 6.70143 30956 ft 383 kts 189°
2026-04-28 12:08 48.58017 6.70030 31037 ft 390 kts 189°
2026-04-28 12:08 48.52458 6.69789 31036 ft 408 kts 188°
2026-04-28 12:09 48.46650 6.69552 31025 ft 425 kts 189°
2026-04-28 12:09 48.40609 6.69317 31019 ft 432 kts 188°
2026-04-28 12:10 48.34598 6.69099 31026 ft 433 kts 188°
2026-04-28 12:10 48.28595 6.68884 31026 ft 430 kts 188°
2026-04-28 12:11 48.22587 6.68656 31023 ft 432 kts 189°
2026-04-28 12:11 48.16573 6.68423 31028 ft 431 kts 189°
2026-04-28 12:12 48.10602 6.68203 31030 ft 431 kts 188°
2026-04-28 12:12 48.04556 6.67978 31032 ft 432 kts 189°
2026-04-28 12:13 47.98510 6.67749 31024 ft 431 kts 189°
2026-04-28 12:13 47.92490 6.67521 31024 ft 431 kts 189°
2026-04-28 12:14 47.86496 6.67294 31030 ft 431 kts 189°
2026-04-28 12:14 47.80483 6.67071 31023 ft 434 kts 189°
2026-04-28 12:15 47.74457 6.66845 31022 ft 432 kts 188°
2026-04-28 12:15 47.68431 6.66618 31019 ft 432 kts 189°
2026-04-28 12:16 47.62361 6.66387 31015 ft 435 kts 188°
2026-04-28 12:16 47.56305 6.66161 31017 ft 435 kts 188°
2026-04-28 12:17 47.50225 6.65936 31014 ft 435 kts 188°
2026-04-28 12:17 47.44202 6.65481 31020 ft 429 kts 194°
2026-04-28 12:18 47.38597 6.62947 31022 ft 416 kts 212°
2026-04-28 12:18 47.33823 6.58298 31024 ft 408 kts 223°
2026-04-28 12:19 47.29466 6.52964 31024 ft 408 kts 225°
2026-04-28 12:19 47.25167 6.47502 31032 ft 405 kts 225°
2026-04-28 12:20 47.20879 6.42071 31023 ft 407 kts 225°
2026-04-28 12:20 47.16561 6.36652 31023 ft 408 kts 225°
2026-04-28 12:21 47.12222 6.31242 31021 ft 408 kts 224°
2026-04-28 12:21 47.07614 6.26270 31016 ft 415 kts 213°
2026-04-28 12:22 47.02050 6.23453 31020 ft 429 kts 197°
2026-04-28 12:22 46.96102 6.22326 31011 ft 432 kts 192°
2026-04-28 12:23 46.90020 6.21574 31016 ft 435 kts 191°
2026-04-28 12:23 46.83986 6.20853 31018 ft 435 kts 191°
2026-04-28 12:24 46.77945 6.20096 31017 ft 437 kts 191°
2026-04-28 12:24 46.71849 6.19309 31024 ft 436 kts 191°
2026-04-28 12:25 46.65802 6.18520 31019 ft 437 kts 191°
2026-04-28 12:25 46.59718 6.17722 31033 ft 438 kts 191°
2026-04-28 12:26 46.53524 6.16895 31025 ft 450 kts 191°
2026-04-28 12:26 46.47344 6.16082 31026 ft 448 kts 191°
2026-04-28 12:27 46.41056 6.15257 31019 ft 450 kts 191°
2026-04-28 12:27 46.34831 6.14445 31021 ft 451 kts 191°
2026-04-28 12:28 46.28562 6.13629 31023 ft 450 kts 191°
2026-04-28 12:28 46.22336 6.12735 31014 ft 450 kts 193°
2026-04-28 12:29 46.15394 6.11226 31010 ft 447 kts 194°
2026-04-28 12:30 46.09232 6.09766 31017 ft 448 kts 194°
2026-04-28 12:30 46.03080 6.08329 31009 ft 450 kts 194°
2026-04-28 12:31 45.96878 6.06917 31017 ft 451 kts 194°
2026-04-28 12:31 45.90636 6.05526 31013 ft 451 kts 193°
2026-04-28 12:32 45.84421 6.04153 31005 ft 452 kts 194°
2026-04-28 12:32 45.78184 6.02777 31005 ft 452 kts 194°
2026-04-28 12:33 45.71977 6.01407 31002 ft 451 kts 193°
2026-04-28 12:33 45.65745 6.00034 30999 ft 452 kts 193°
2026-04-28 12:34 45.59523 5.98667 30999 ft 452 kts 193°
2026-04-28 12:34 45.53285 5.97231 31000 ft 452 kts 196°
2026-04-28 12:35 45.47427 5.94212 31010 ft 442 kts 214°
2026-04-28 12:35 45.42635 5.88914 31032 ft 436 kts 226°
2026-04-28 12:36 45.38284 5.82841 31037 ft 435 kts 228°
2026-04-28 12:36 45.34050 5.76678 31039 ft 436 kts 229°
2026-04-28 12:37 45.29807 5.70523 31029 ft 436 kts 228°
2026-04-28 12:37 45.25526 5.64373 31013 ft 436 kts 228°
2026-04-28 12:38 45.21237 5.58257 31004 ft 436 kts 228°
2026-04-28 12:38 45.16925 5.52136 31005 ft 437 kts 227°
2026-04-28 12:39 45.12637 5.46068 31012 ft 438 kts 227°
2026-04-28 12:39 45.08328 5.39987 31016 ft 437 kts 227°
2026-04-28 12:40 45.03997 5.33894 31009 ft 439 kts 227°
2026-04-28 12:40 44.99679 5.27838 30999 ft 438 kts 226°
2026-04-28 12:41 44.95343 5.21770 30984 ft 438 kts 227°
2026-04-28 12:41 44.90992 5.15692 30979 ft 438 kts 226°
2026-04-28 12:42 44.86682 5.09684 30976 ft 437 kts 226°
2026-04-28 12:42 44.82332 5.03630 30977 ft 439 kts 226°
2026-04-28 12:43 44.78056 4.97694 30677 ft 418 kts 226°
2026-04-28 12:43 44.76033 4.94896 30066 ft 403 kts 226°
2026-04-28 12:43 44.74023 4.92199 29447 ft 390 kts 224°
2026-04-28 12:43 44.71963 4.89839 28856 ft 380 kts 217°
2026-04-28 12:44 44.69754 4.87905 28333 ft 369 kts 212°
2026-04-28 12:44 44.67504 4.86244 27846 ft 357 kts 209°
2026-04-28 12:44 44.65295 4.84722 27229 ft 350 kts 209°
2026-04-28 12:44 44.63105 4.83233 26418 ft 348 kts 209°
2026-04-28 12:45 44.60955 4.81761 25625 ft 346 kts 209°
2026-04-28 12:45 44.58812 4.80284 24881 ft 342 kts 209°
2026-04-28 12:45 44.56638 4.78896 24115 ft 340 kts 205°
2026-04-28 12:45 44.54397 4.77823 23375 ft 338 kts 198°
2026-04-28 12:46 44.52124 4.77091 22639 ft 336 kts 194°
2026-04-28 12:46 44.49838 4.76520 21936 ft 332 kts 192°
2026-04-28 12:46 44.47555 4.76004 21217 ft 329 kts 192°
2026-04-28 12:46 44.45322 4.75508 20510 ft 326 kts 192°
2026-04-28 12:47 44.43073 4.75005 19791 ft 323 kts 192°
2026-04-28 12:47 44.40889 4.74507 19353 ft 317 kts 192°
2026-04-28 12:47 44.38712 4.74004 18826 ft 317 kts 192°
2026-04-28 12:47 44.36533 4.73496 18432 ft 314 kts 192°
2026-04-28 12:48 44.34377 4.72990 17979 ft 312 kts 192°
2026-04-28 12:48 44.32242 4.72487 17597 ft 309 kts 192°
2026-04-28 12:48 44.30123 4.71987 17177 ft 307 kts 192°
2026-04-28 12:48 44.28021 4.71493 16772 ft 305 kts 192°
2026-04-28 12:49 44.25917 4.70997 16350 ft 304 kts 192°
2026-04-28 12:49 44.23837 4.70508 15917 ft 303 kts 192°
2026-04-28 12:49 44.21762 4.70021 15515 ft 300 kts 192°
2026-04-28 12:49 44.19717 4.69541 15114 ft 299 kts 192°
2026-04-28 12:50 44.17670 4.69062 14720 ft 297 kts 192°
2026-04-28 12:50 44.15625 4.68583 14305 ft 295 kts 192°
2026-04-28 12:50 44.13581 4.68147 13779 ft 299 kts 188°
2026-04-28 12:50 44.11496 4.68137 13123 ft 308 kts 174°
2026-04-28 12:51 44.09408 4.68927 12624 ft 311 kts 161°
2026-04-28 12:51 44.07413 4.70075 12201 ft 309 kts 159°
2026-04-28 12:51 44.05440 4.71279 11795 ft 307 kts 158°
2026-04-28 12:51 44.03490 4.72434 11401 ft 304 kts 159°
2026-04-28 12:52 44.01528 4.73547 11002 ft 302 kts 160°
2026-04-28 12:52 43.99568 4.74629 10601 ft 299 kts 159°
2026-04-28 12:52 43.97655 4.75760 10206 ft 297 kts 157°
2026-04-28 12:52 43.95771 4.76913 9906 ft 291 kts 158°
2026-04-28 12:53 43.93933 4.77999 9604 ft 287 kts 158°
2026-04-28 12:53 43.92081 4.79041 9218 ft 285 kts 159°
2026-04-28 12:53 43.90223 4.80057 8852 ft 283 kts 159°
2026-04-28 12:53 43.89002 4.80717 8577 ft 278 kts 159°
2026-04-28 12:54 43.86658 4.81982 8175 ft 267 kts 159°
2026-04-28 12:54 43.84935 4.82912 7789 ft 267 kts 159°
2026-04-28 12:54 43.83195 4.83852 7444 ft 265 kts 159°
2026-04-28 12:54 43.81469 4.84786 7109 ft 263 kts 159°
2026-04-28 12:55 43.79785 4.85715 6868 ft 260 kts 158°
2026-04-28 12:55 43.78104 4.86701 6433 ft 264 kts 157°
2026-04-28 12:55 43.76404 4.87689 6081 ft 263 kts 158°
2026-04-28 12:55 43.74698 4.88642 5730 ft 262 kts 159°
2026-04-28 12:56 43.73016 4.89558 5365 ft 255 kts 159°
2026-04-28 12:56 43.71394 4.90433 5196 ft 238 kts 159°
2026-04-28 12:56 43.69916 4.91228 5217 ft 218 kts 159°
2026-04-28 12:56 43.68549 4.91983 5200 ft 204 kts 158°
2026-04-28 12:57 43.67266 4.92712 5140 ft 198 kts 158°
2026-04-28 12:57 43.65974 4.93455 4993 ft 198 kts 158°
2026-04-28 12:57 43.64698 4.94187 4833 ft 197 kts 158°
2026-04-28 12:57 43.63425 4.94913 4669 ft 197 kts 158°
2026-04-28 12:58 43.62181 4.95703 4473 ft 195 kts 150°
2026-04-28 12:58 43.61087 4.96804 4251 ft 191 kts 139°
2026-04-28 12:58 43.60147 4.98050 4065 ft 186 kts 135°
2026-04-28 12:58 43.59242 4.99327 3939 ft 182 kts 135°
2026-04-28 12:59 43.58356 5.00588 3882 ft 185 kts 135°
2026-04-28 12:59 43.57457 5.01872 3628 ft 185 kts 135°
2026-04-28 12:59 43.56555 5.03161 3340 ft 184 kts 135°
2026-04-28 12:59 43.55680 5.04411 3083 ft 176 kts 135°
2026-04-28 13:00 43.54858 5.05586 2878 ft 165 kts 135°
2026-04-28 13:00 43.54059 5.06726 2614 ft 161 kts 136°
2026-04-28 13:00 43.53282 5.07834 2423 ft 160 kts 135°
2026-04-28 13:00 43.52516 5.08926 2229 ft 154 kts 136°
2026-04-28 13:01 43.51790 5.09962 1961 ft 145 kts 136°
2026-04-28 13:01 43.51112 5.10930 1805 ft 136 kts 136°
2026-04-28 13:01 43.50444 5.11881 1656 ft 138 kts 135°
2026-04-28 13:01 43.49770 5.12839 1421 ft 137 kts 137°
2026-04-28 13:02 43.49097 5.13797 1263 ft 137 kts 135°
2026-04-28 13:02 43.48656 5.14425 1117 ft 138 kts 136°
2026-04-28 13:02 43.47763 5.15689 882 ft 141 kts 137°
2026-04-28 13:02 43.47078 5.16669 700 ft 141 kts 137°
2026-04-28 13:03 43.46403 5.17621 498 ft 141 kts 137°
2026-04-28 13:03 43.45726 5.18578 338 ft 138 kts 137°
2026-04-28 13:03 43.45055 5.19547 169 ft 138 kts 137°
2026-04-28 13:03 43.44389 5.20484 16 ft 133 kts 137°
2026-04-28 13:04 43.43882 5.21199 26 ft 70 kts 134°
2026-04-28 13:04 43.43656 5.21523 34 ft 34 kts 134°
2026-04-28 13:04 43.43533 5.21697 39 ft 10 kts 134°
2026-04-28 13:04 43.43489 5.21760 42 ft 12 kts 134°
2026-04-28 13:05 43.43426 5.21849 45 ft 13 kts 134°
2026-04-28 13:05 43.43347 5.21968 48 ft 17 kts 125°
2026-04-28 13:05 43.43332 5.22112 52 ft 14 kts 88°
2026-04-28 13:05 43.43343 5.22233 53 ft 11 kts 59°
2026-04-28 13:06 43.43421 5.22276 52 ft 15 kts 346°
2026-04-28 13:06 43.43548 5.22177 45 ft 24 kts 332°
2026-04-28 13:06 43.43690 5.22067 37 ft 22 kts 328°
2026-04-28 13:06 43.43819 5.21931 32 ft 23 kts 311°
2026-04-28 13:07 43.43910 5.21875 30 ft 13 kts 30°
2026-04-28 13:07 43.43981 5.21952 30 ft 12 kts 48°
2026-04-28 13:07 43.44050 5.21951 29 ft 11 kts 318°
2026-04-28 13:07 43.44090 5.21893 28 ft 13 kts 313°
2026-04-28 13:08 43.44173 5.21815 26 ft 7 kts 327°
2026-04-28 13:08 43.44199 5.21787 25 ft 2 kts 340°
2026-04-28 13:08 43.44208 5.21790 25 ft 0 kts 41°
2026-04-28 13:08 43.44209 5.21792 25 ft 0 kts 53°
2026-04-28 13:09 43.44211 5.21799 26 ft 1 kts 82°
2026-04-28 13:09 43.44211 5.21805 26 ft 0 kts 85°